Location: Brno
(49.2000°N, 16.6330°E)
Time: 00:17:37
(UTC+02:00)

Transit 4A - Pass Details

Date: 01 August 2021
Orbit: 870 x 974 km, 66.8° (Epoch: 26 September)

Event Time Altitude Azimuth Distance (km) Brightness Sun altitude
Rises 11:16:41 0° 310° (NW) 3,482 10.5 52.4°
Reaches altitude 10° 11:20:37 10° 284° (WNW) 2,553 10.0 52.9°
Maximum altitude 11:23:10 13° 258° (WSW) 2,348 10.0 53.1°
Drops below altitude 10° 11:25:43 10° 232° (SW) 2,571 10.3 53.4°
Sets 11:29:44 0° 206° (SSW) 3,530 11.1 53.8°
